Location: Emporia
(38.4040°N, 96.1810°W)
Time: 20:22:14
(UTC-05:00)

Amateur Radio Satellites - All Passes

Search period start: 05 May 2015 19:52
Search period end: 06 May 2015 19:52
Location: Emporia, 38.4040°N, 96.1810°W

Satellite Date Start Highest point End Downlink Frequencies (MHz)
Time Altitude Azimuth
Cosmos 2499 05 May 19:53:02 20:00:19 27° 291° (WNW) 20:07:05 435.465 / 435.565
CANX-2 05 May 20:00:51 20:01:29 10° 65° (ENE) 20:02:22 2200.000
Cubesat XI-IV 05 May 20:01:52 20:06:06 23° 267° (W) 20:10:13 437.490
CUTE 1.7 + AOD 2 05 May 20:07:34 20:08:49 11° 66° (ENE) 20:10:19 437.475
PHONESAT 2.4 05 May 20:13:52 20:14:47 11° 216° (SW) 20:15:36 2401.200-2431.200
AUBIESAT-1 05 May 20:17:26 20:21:11 76° 106° (ESE) 20:24:39 437.475
O/OREOS (USA 219) 05 May 20:17:29 20:21:29 31° 105° (ESE) 20:25:32 437.305
COMPASS 1 05 May 20:24:32 20:25:51 11° 66° (ENE) 20:27:23 437.405
HO-68 05 May 20:32:45 20:39:24 43° 67° (ENE) 20:46:08 435.675
STRAND 1 05 May 20:38:13 20:43:21 81° 283° (WNW) 20:48:27 437.568
BRITE-PL 05 May 20:43:16 20:47:30 68° 75° (ENE) 20:52:03 437.365/2234.400
DOVE 4 05 May 20:52:49 20:56:51 35° 71° (ENE) 21:01:12 437.250
CUBESAT XI-V 05 May 20:53:30 20:57:07 23° 291° (WNW) 21:00:40 437.345
RS-15 05 May 20:54:51 21:04:58 35° 39° (NE) 21:15:41 29.354- 29.394
AAUSAT CUBESAT 2 05 May 20:55:25 20:58:37 22° 70° (ENE) 21:01:56 437.432
Cosmos 2491 05 May 20:59:37 21:05:06 20° 81° (E) 21:11:06 435.465 / 435.565
YUBILEINY 05 May 21:04:43 21:12:53 43° 74° (ENE) 21:21:05 435.215
SEEDS 05 May 21:05:05 21:09:06 41° 73° (ENE) 21:13:08 437.485
GOMX 1 05 May 21:10:40 21:15:02 85° 79° (E) 21:19:45 467.674
M-CUBED/EXP-1 PRIME 05 May 21:21:50 21:24:08 15° 299° (WNW) 21:26:14 437.505
PRISM 05 May 21:24:14 21:26:51 16° 293° (WNW) 21:29:20 437.425
CANX-2 05 May 21:32:37 21:36:55 69° 259° (W) 21:41:13 2200.000
CUTE 1.7 + AOD 2 05 May 21:40:01 21:44:17 62° 260° (W) 21:48:34 437.475
UKube-1 05 May 21:42:02 21:42:06 10° 64° (ENE) 21:42:27 .
JUGNU 05 May 21:42:06 21:43:30 11° 173° (S) 21:44:58 437.505
CINEMA 3 05 May 21:50:10 21:54:41 74° 76° (ENE) 21:59:28 145.822/145.860
FUNcube-1 05 May 21:51:40 21:55:15 25° 69° (ENE) 21:59:00 145.935
Oscar 11 05 May 21:53:49 21:58:00 47° 74° (ENE) 22:02:12 145.826/435.025
COMPASS 1 05 May 21:56:54 22:01:05 59° 260° (W) 22:05:17 437.405
O/OREOS (USA 219) 05 May 21:57:13 22:00:57 24° 301° (WNW) 22:04:36 437.305
CUBEBUG 2 05 May 22:09:48 22:14:15 62° 75° (ENE) 22:18:53 437.445
UWE-3 05 May 22:11:53 22:16:14 53° 74° (ENE) 22:20:46 435.000/436.395/437.385
HUMSAT D 05 May 22:20:33 22:23:56 24° 70° (ENE) 22:27:26 437.325/437.525
HO-68 05 May 22:20:46 22:27:15 34° 264° (W) 22:33:37 435.675
ZACube-1 05 May 22:21:00 22:25:19 52° 74° (ENE) 22:29:47 437.345
50 SAT 05 May 22:23:39 22:25:47 14° 67° (ENE) 22:28:06 437.505
DELFI C3 05 May 22:26:05 22:30:10 84° 74° (ENE) 22:34:15 145.870
AAUSAT CUBESAT 2 05 May 22:30:26 22:34:08 28° 265° (W) 22:37:46 437.432
DOVE 4 05 May 22:31:26 22:34:49 20° 269° (W) 22:38:12 437.250
SEEDS 05 May 22:42:30 22:45:08 15° 269° (W) 22:47:35 437.485
DX 1 05 May 22:46:50 22:51:05 59° 74° (ENE) 22:55:22 434.975-435.025
Cosmos 2491 05 May 22:52:20 23:01:05 79° 278° (W) 23:09:56 435.465 / 435.565
YUBILEINY 05 May 23:01:45 23:09:39 38° 272° (W) 23:17:19 435.215
VELOX 1 05 May 23:03:18 23:07:23 40° 72° (ENE) 23:11:32 145.980
RS-15 05 May 23:07:03 23:18:41 78° 242° (WSW) 23:30:46 29.354- 29.394
ESTCUBE 1 05 May 23:08:48 23:12:30 26° 70° (ENE) 23:16:15 437.505/2401.250
TIGRISAT 05 May 23:13:14 23:16:47 22° 93° (E) 23:20:22 435.000
UKube-1 05 May 23:13:26 23:17:43 72° 258° (WSW) 23:22:03 .
POLYITAN 1 05 May 23:18:41 23:19:40 11° 89° (E) 23:20:56 437.675
UNISAT 6 05 May 23:22:29 23:26:29 29° 95° (E) 23:30:27 437.425
AISAT 05 May 23:25:27 23:29:49 76° 76° (ENE) 23:34:15 437.250
FUNcube-1 05 May 23:27:35 23:31:29 29° 265° (W) 23:35:24 145.935
QB50P1 05 May 23:29:16 23:31:36 15° 91° (E) 23:34:08 145.935-145.965
JUGNU 05 May 23:29:27 23:31:39 12° 183° (S) 23:33:50 437.505
Oscar 11 05 May 23:32:07 23:34:30 14° 270° (W) 23:36:39 145.826/435.025
AIST 1 05 May 23:33:17 23:36:59 30° 91° (E) 23:40:44
BUGSAT 1 05 May 23:41:18 23:43:15 13° 91° (E) 23:45:27 437.445
CUBEBUG 2 05 May 23:49:47 23:51:30 12° 273° (W) 23:52:56 437.445
UWE-3 05 May 23:50:49 23:53:12 14° 271° (W) 23:55:22 435.000/436.395/437.385
HUMSAT D 05 May 23:55:53 23:59:35 27° 265° (W) 00:03:16 437.325/437.525
50 SAT 05 May 23:56:25 00:00:15 41° 262° (W) 00:04:06 437.505
QB50P2 05 May 23:58:24 00:02:17 32° 97° (E) 00:06:11 145.880/145.840
ZACube-1 05 May 23:59:48 00:02:05 13° 271° (W) 00:04:11 437.345
SRMSAT 06 May 00:01:02 00:03:12 12° 177° (S) 00:05:24 437.500
ANTELSAT 06 May 00:04:32 00:09:13 85° 105° (ESE) 00:13:45 437.575/2403.000
Cosmos 2504 06 May 00:07:03 00:14:37 59° 78° (ENE) 00:21:46 435.465 / 435.565
NANOSAT C BR1 06 May 00:08:07 00:12:11 41° 98° (E) 00:16:15 145.865
CUBEBUG 1 06 May 00:11:05 00:15:24 72° 259° (W) 00:19:43 437.445
BEESAT 3 06 May 00:14:41 00:18:35 47° 117° (ESE) 00:22:34 437.485
POPSAT HIP 1 06 May 00:16:38 00:20:51 52° 100° (E) 00:25:03 437.405
DX 1 06 May 00:26:37 00:27:48 11° 271° (W) 00:28:43 434.975-435.025
BEESAT 2 06 May 00:31:02 00:35:03 59° 118° (ESE) 00:39:09 435.950
DUCHIFAT 1 06 May 00:38:12 00:42:31 88° 283° (WNW) 00:46:48 145.980
VELOX 1 06 May 00:41:17 00:44:10 16° 268° (W) 00:46:54 145.980
ESTCUBE 1 06 May 00:45:28 00:49:19 27° 265° (W) 00:53:06 437.505/2401.250
SPROUT 06 May 00:46:47 00:51:03 73° 76° (ENE) 00:55:21 437.525
SWISSCUBE 06 May 00:47:03 00:47:35 10° 63° (ENE) 00:48:25 437.505
TIGRISAT 06 May 00:49:27 00:53:37 33° 289° (WNW) 00:57:39 435.000
POLYITAN 1 06 May 00:51:45 00:56:02 59° 285° (WNW) 01:00:16 437.675
Cosmos 2491 06 May 00:54:56 00:59:45 15° 301° (WNW) 01:04:00 435.465 / 435.565
UNISAT 6 06 May 00:59:19 01:03:11 26° 291° (WNW) 01:06:52 437.425
QB50P1 06 May 01:03:38 01:07:44 43° 287° (WNW) 01:11:48 145.935-145.965
AIST 2 06 May 01:05:16 01:09:14 40° 116° (ESE) 01:13:17 435.215
TISAT 1 06 May 01:07:41 01:11:53 83° 257° (WSW) 01:16:07 437.305
AIST 1 06 May 01:11:34 01:14:44 19° 287° (WNW) 01:17:46
BUGSAT 1 06 May 01:14:58 01:19:02 46° 286° (WNW) 01:23:06 437.445
RS-15 06 May 01:22:44 01:29:44 17° 259° (W) 01:35:52 29.354- 29.394
GONETS M04 06 May 01:31:40 01:35:30 14° 58° (ENE) 01:39:58
QB50P2 06 May 01:34:46 01:38:00 20° 291° (WNW) 01:41:06 145.880/145.840
NANOSAT C BR1 06 May 01:44:57 01:47:44 17° 292° (WNW) 01:50:21 145.865
SRMSAT 06 May 01:49:53 01:51:31 11° 187° (S) 01:53:06 437.500
ITUPSAT 1 06 May 01:52:33 01:57:04 45° 72° (ENE) 02:01:38 437.325
BEESAT 3 06 May 01:54:04 01:56:52 17° 314° (NW) 01:59:35 437.485
POPSAT HIP 1 06 May 01:54:07 01:56:20 13° 294° (WNW) 01:58:20 437.405
Cosmos 2504 06 May 02:01:44 02:07:26 23° 277° (W) 02:12:38 435.465 / 435.565
BEESAT 2 06 May 02:11:08 02:13:35 15° 316° (NW) 02:15:55 435.950
CUSAT 1 06 May 02:14:44 02:21:04 25° 65° (ENE) 02:27:34 437.405
BEESAT 06 May 02:15:32 02:20:19 81° 77° (ENE) 02:25:06 436.000
KKS-1 06 May 02:19:17 02:21:43 15° 66° (ENE) 02:24:21 437.445
SWISSCUBE 06 May 02:20:03 02:24:50 84° 257° (WSW) 02:29:38 437.505
DANDE 06 May 02:27:47 02:34:17 25° 66° (ENE) 02:41:08 436.750
AIST 2 06 May 02:44:45 02:48:01 20° 313° (NW) 02:51:13 435.215
STARS 06 May 02:45:09 02:48:01 18° 67° (ENE) 02:51:02 437.465
Oscar 19 06 May 02:48:42 02:53:54 67° 102° (ESE) 02:59:03 437.125/150
GONETS M04 06 May 03:25:25 03:34:17 75° 81° (E) 03:43:04
ITUPSAT 1 06 May 03:31:58 03:35:14 17° 268° (W) 03:38:19 437.325
Gurwin Techsat 1B 06 May 03:47:31 03:52:48 64° 101° (E) 03:58:04 435.225
ITAMSAT 1 06 May 03:49:09 03:54:21 75° 102° (ESE) 03:59:33 435.822/435.867
Cosmos 2499 06 May 03:53:36 03:57:52 17° 63° (ENE) 04:02:25 435.465 / 435.565
KKS-1 06 May 03:53:41 03:57:59 49° 261° (W) 04:02:20 437.445
CUSAT 1 06 May 03:56:20 04:04:40 75° 264° (W) 04:12:32 437.405
MOZHAYETS 4 06 May 04:09:44 04:12:28 16° 67° (ENE) 04:15:24
DANDE 06 May 04:09:55 04:18:22 76° 263° (W) 04:26:41 436.750
JAS-2 06 May 04:16:41 04:20:07 17° 88° (E) 04:23:38 435.910
STARS 06 May 04:20:03 04:24:12 40° 262° (W) 04:28:22 437.465
Oscar 19 06 May 04:29:47 04:32:44 15° 296° (WNW) 04:35:27 437.125/150
HORYU 2 06 May 04:34:05 04:38:07 33° 97° (E) 04:42:09 437.375
GONETS M04 06 May 05:24:00 05:30:19 21° 278° (W) 05:36:10
AO-7 06 May 05:25:10 05:33:27 65° 104° (ESE) 05:41:45 29.400- 29.500
Gurwin Techsat 1B 06 May 05:29:04 05:32:18 16° 296° (WNW) 05:35:19 435.225
ITAMSAT 1 06 May 05:30:44 05:33:18 13° 297° (WNW) 05:35:37 435.822/435.867
CUSAT 1 06 May 05:42:04 05:46:16 14° 279° (W) 05:49:48 437.405
Cosmos 2499 06 May 05:44:44 05:52:10 79° 265° (W) 05:59:13 435.465 / 435.565
MOZHAYETS 4 06 May 05:44:52 05:49:21 48° 261° (W) 05:53:50
DANDE 06 May 05:56:03 06:00:36 15° 278° (W) 06:04:33 436.750
JAS-2 06 May 06:00:17 06:05:51 53° 288° (WNW) 06:10:57 435.910
HORYU 2 06 May 06:11:09 06:14:35 21° 292° (WNW) 06:17:54 437.375
STRAND 1 06 May 06:16:21 06:18:58 15° 64° (ENE) 06:21:49 437.568
CUBESAT XI-V 06 May 06:17:55 06:21:47 28° 70° (ENE) 06:25:44 437.345
CUTE-I 06 May 06:28:13 06:30:32 13° 89° (E) 06:33:11 437.470
O/OREOS (USA 219) 06 May 06:28:30 06:32:49 46° 65° (ENE) 06:37:08 437.305
PCSat 06 May 06:31:20 06:36:43 77° 116° (ESE) 06:42:11 145.827
M-CUBED/EXP-1 PRIME 06 May 06:31:47 06:36:20 43° 68° (ENE) 06:40:46 437.505
PRISM 06 May 06:37:02 06:40:18 24° 70° (ENE) 06:43:38 437.425
Cubesat XI-IV 06 May 06:40:31 06:44:02 18° 91° (E) 06:47:45 437.490
AUBIESAT-1 06 May 07:02:35 07:07:22 81° 70° (ENE) 07:12:00 437.475
ISS 06 May 07:15:20 07:17:06 14° 130° (SE) 07:18:59 145.825
AO-7 06 May 07:18:53 07:25:44 28° 301° (WNW) 07:32:22 29.400- 29.500
Cosmos 2499 06 May 07:43:04 07:44:06 10° 282° (WNW) 07:44:29 435.465 / 435.565
STRAND 1 06 May 07:52:38 07:57:41 66° 258° (WSW) 08:02:47 437.568
CUBESAT XI-V 06 May 07:55:19 07:59:13 26° 266° (W) 08:03:01 437.345
CUTE-I 06 May 08:05:55 08:11:14 70° 286° (WNW) 08:16:32 437.470
M-CUBED/EXP-1 PRIME 06 May 08:07:44 08:11:18 20° 262° (W) 08:14:40 437.505
O/OREOS (USA 219) 06 May 08:09:21 08:11:52 14° 259° (W) 08:14:12 437.305
PRISM 06 May 08:12:13 08:15:42 25° 265° (W) 08:19:05 437.425
PCSat 06 May 08:17:18 08:20:50 17° 315° (NW) 08:24:13 145.827
Cubesat XI-IV 06 May 08:19:19 08:24:30 52° 288° (WNW) 08:29:39 437.490
BEESAT 3 06 May 08:35:22 08:38:24 20° 47° (NE) 08:41:28 437.485
BRITE-PL 06 May 08:48:53 08:53:38 30° 94° (E) 08:58:36 437.365/2234.400
ISS 06 May 08:50:01 08:53:10 51° 324° (NW) 08:56:21 145.825
BEESAT 2 06 May 08:52:08 08:55:30 24° 49° (NE) 08:58:53 435.950
DOVE 4 06 May 08:54:37 08:57:03 14° 88° (E) 08:59:46 437.250
Cosmos 2491 06 May 09:04:44 09:13:13 49° 76° (ENE) 09:21:43 435.465 / 435.565
GOMX 1 06 May 09:13:39 09:18:29 33° 95° (E) 09:23:26 467.674
CANX-2 06 May 09:20:12 09:23:30 22° 93° (E) 09:26:52 2200.000
CUTE 1.7 + AOD 2 06 May 09:27:22 09:30:49 24° 94° (E) 09:34:17 437.475
AIST 2 06 May 09:28:53 09:31:58 19° 47° (NE) 09:35:05 435.215
SO-50 06 May 09:35:35 09:40:13 88° 293° (WNW) 09:45:04 436.795
COMPASS 1 06 May 09:42:31 09:45:51 23° 94° (E) 09:49:14 437.405
CINEMA 3 06 May 09:47:20 09:51:10 22° 92° (E) 09:55:05 145.822/145.860
HO-68 06 May 09:49:08 09:56:05 51° 100° (E) 10:03:00 435.675
YUBILEINY 06 May 10:03:20 10:11:43 53° 91° (E) 10:20:12 435.215
CUBEBUG 2 06 May 10:03:56 10:06:42 16° 90° (E) 10:09:39 437.445
UWE-3 06 May 10:05:26 10:07:20 13° 88° (E) 10:09:30 435.000/436.395/437.385
DELFI C3 06 May 10:08:59 10:10:35 12° 90° (E) 10:12:23 145.870
TIGRISAT 06 May 10:11:01 10:14:03 18° 67° (ENE) 10:17:17 435.000
BEESAT 3 06 May 10:12:46 10:16:33 37° 245° (WSW) 10:20:14 437.485
ZACube-1 06 May 10:13:31 10:15:04 12° 88° (E) 10:16:54 437.345
AAUSAT CUBESAT 2 06 May 10:14:25 10:18:27 48° 99° (E) 10:22:27 437.432
UNISAT 6 06 May 10:20:14 10:23:48 23° 68° (ENE) 10:27:32 437.425
SEEDS 06 May 10:26:23 10:30:37 81° 283° (WNW) 10:34:47 437.485
BRITE-PL 06 May 10:27:08 10:32:09 36° 289° (WNW) 10:37:15 437.365/2234.400
ISS 06 May 10:28:41 10:30:08 12° 343° (NNW) 10:31:33 145.825
BEESAT 2 06 May 10:30:01 10:33:37 29° 246° (WSW) 10:37:08 435.950
DOVE 4 06 May 10:30:03 10:35:22 70° 284° (WNW) 10:40:38 437.250
DX 1 06 May 10:38:59 10:40:18 11° 90° (E) 10:41:54 434.975-435.025
QB50P2 06 May 10:50:31 10:53:40 21° 69° (ENE) 10:56:57 145.880/145.840
GOMX 1 06 May 10:51:44 10:56:32 32° 290° (WNW) 11:01:18 467.674
CANX-2 06 May 10:55:48 10:59:27 28° 289° (WNW) 11:03:01 2200.000
NANOSAT C BR1 06 May 10:59:39 11:03:06 26° 70° (ENE) 11:06:39 145.865
ANTELSAT 06 May 11:01:36 11:06:10 63° 75° (ENE) 11:10:50 437.575/2403.000
Cosmos 2491 06 May 11:02:06 11:09:50 34° 274° (W) 11:17:22 435.465 / 435.565
CUTE 1.7 + AOD 2 06 May 11:03:08 11:06:41 25° 290° (WNW) 11:10:08 437.475
UKube-1 06 May 11:03:13 11:06:26 21° 94° (E) 11:09:46 .
AIST 2 06 May 11:06:46 11:10:46 41° 244° (WSW) 11:14:39 435.215
POPSAT HIP 1 06 May 11:08:11 11:11:55 32° 71° (ENE) 11:15:45 437.405
FUNcube-1 06 May 11:16:55 11:21:27 61° 100° (E) 11:25:51 145.935
COMPASS 1 06 May 11:18:01 11:21:30 25° 289° (WNW) 11:24:54 437.405
Oscar 11 06 May 11:18:32 11:22:51 67° 284° (WNW) 11:27:07 145.826/435.025
AIST 1 06 May 11:18:40 11:22:59 86° 83° (E) 11:27:18
AISAT 06 May 11:18:54 11:21:39 16° 92° (E) 11:24:36 437.250
SO-50 06 May 11:19:08 11:21:35 13° 321° (NW) 11:23:53 436.795
RS-15 06 May 11:22:13 11:28:00 17° 101° (E) 11:34:39 29.354- 29.394
CINEMA 3 06 May 11:23:49 11:28:31 39° 288° (WNW) 11:33:04 145.822/145.860
DUCHIFAT 1 06 May 11:28:59 11:33:05 54° 74° (ENE) 11:37:15 145.980
50 SAT 06 May 11:35:12 11:38:29 25° 95° (E) 11:41:47 437.505
HO-68 06 May 11:37:26 11:43:32 30° 297° (WNW) 11:49:26 435.675
CUBEBUG 2 06 May 11:39:08 11:43:44 48° 287° (WNW) 11:48:11 437.445
UWE-3 06 May 11:39:45 11:44:21 58° 285° (WNW) 11:48:49 435.000/436.395/437.385
HUMSAT D 06 May 11:40:55 11:45:08 53° 99° (E) 11:49:17 437.325/437.525
DELFI C3 06 May 11:42:10 11:46:01 44° 286° (WNW) 11:49:50 145.870
POLYITAN 1 06 May 11:42:59 11:47:14 85° 77° (ENE) 11:51:32 437.675
TIGRISAT 06 May 11:46:03 11:50:28 44° 262° (W) 11:54:59 435.000
ZACube-1 06 May 11:47:25 11:51:56 59° 285° (WNW) 11:56:20 437.345
AAUSAT CUBESAT 2 06 May 11:51:37 11:53:42 13° 293° (WNW) 11:55:35 437.432
QB50P1 06 May 11:54:29 11:58:41 72° 258° (WSW) 12:02:57 145.935-145.965
UNISAT 6 06 May 11:56:11 12:00:25 34° 264° (W) 12:04:40 437.425
YUBILEINY 06 May 12:01:11 12:08:58 32° 290° (WNW) 12:16:31 435.215
CUBEBUG 1 06 May 12:02:00 12:05:28 23° 94° (E) 12:09:02 437.445
VERMONT LUNAR 06 May 12:02:52 12:05:54 35° 154° (SSE) 12:08:58 437.305
BUGSAT 1 06 May 12:03:19 12:07:20 84° 257° (WSW) 12:11:25 437.445
DX 1 06 May 12:12:41 12:17:00 58° 286° (WNW) 12:21:17 434.975-435.025
QB50P2 06 May 12:25:39 12:29:25 30° 264° (W) 12:33:10 145.880/145.840
VELOX 1 06 May 12:31:18 12:35:47 79° 283° (WNW) 12:40:14 145.980
NANOSAT C BR1 06 May 12:35:25 12:38:54 24° 265° (W) 12:42:20 145.865
SPROUT 06 May 12:36:30 12:38:48 14° 90° (E) 12:41:17 437.525
ESTCUBE 1 06 May 12:38:46 12:43:15 70° 101° (ESE) 12:47:43 437.505/2401.250
UKube-1 06 May 12:38:47 12:42:39 31° 289° (WNW) 12:46:28 .
ANTELSAT 06 May 12:41:32 12:43:28 12° 272° (W) 12:45:08 437.575/2403.000
Cosmos 2504 06 May 12:41:46 12:50:17 56° 91° (E) 12:58:35 435.465 / 435.565
POPSAT HIP 1 06 May 12:44:46 12:47:54 19° 267° (W) 12:50:56 437.405
AISAT 06 May 12:54:14 12:58:29 42° 288° (WNW) 13:02:42 437.250
TISAT 1 06 May 12:54:47 12:57:36 17° 92° (E) 13:00:32 437.305
FUNcube-1 06 May 12:55:11 12:57:17 13° 295° (WNW) 12:59:08 145.935
PHONESAT 2.4 06 May 12:58:01 13:01:10 32° 152° (SSE) 13:04:22 2401.200-2431.200
DUCHIFAT 1 06 May 13:07:57 13:09:20 11° 271° (W) 13:10:28 145.980
50 SAT 06 May 13:10:02 13:13:11 22° 290° (WNW) 13:16:13 437.505
HUMSAT D 06 May 13:18:22 13:20:28 13° 294° (WNW) 13:22:20 437.325/437.525
RS-15 06 May 13:28:02 13:38:54 83° 118° (ESE) 13:50:03 29.354- 29.394
ITAMSAT 1 06 May 13:30:23 13:31:57 12° 62° (ENE) 13:33:49 435.822/435.867
Gurwin Techsat 1B 06 May 13:32:02 13:33:06 11° 61° (ENE) 13:34:29 435.225
CUBEBUG 1 06 May 13:38:01 13:41:50 29° 289° (WNW) 13:45:38 437.445
VERMONT LUNAR 06 May 13:39:53 13:43:11 71° 349° (N) 13:46:31 437.305
ISS 06 May 13:42:53 13:45:07 17° 23° (NNE) 13:47:21 145.825
ITUPSAT 1 06 May 13:56:31 13:58:30 13° 89° (E) 14:00:45 437.325
Oscar 19 06 May 14:03:56 14:09:07 82° 74° (ENE) 14:14:20 437.125/150
SPROUT 06 May 14:11:01 14:15:10 45° 287° (WNW) 14:19:18 437.525
BEESAT 06 May 14:18:03 14:21:44 23° 94° (E) 14:25:33 436.000
ESTCUBE 1 06 May 14:18:11 14:19:37 11° 296° (WNW) 14:20:47 437.505/2401.250
SWISSCUBE 06 May 14:22:24 14:26:26 28° 95° (E) 14:30:31 437.505
TISAT 1 06 May 14:29:35 14:33:32 36° 288° (WNW) 14:37:26 437.305
JAS-2 06 May 14:30:42 14:31:27 10° 57° (ENE) 14:32:43 435.910
GONETS M04 06 May 14:32:25 14:36:55 16° 80° (E) 14:42:04
AO-7 06 May 14:34:25 14:38:51 16° 52° (NE) 14:43:41 29.400- 29.500
PHONESAT 2.4 06 May 14:35:41 14:39:13 78° 347° (NNW) 14:42:47 2401.200-2431.200
Cosmos 2504 06 May 14:36:25 14:44:08 32° 290° (WNW) 14:51:24 435.465 / 435.565
ITAMSAT 1 06 May 15:05:40 15:10:50 85° 256° (WSW) 15:16:02 435.822/435.867
Gurwin Techsat 1B 06 May 15:07:04 15:12:22 86° 79° (ENE) 15:17:44 435.225
VERMONT LUNAR 06 May 15:17:27 15:20:45 62° 6° (N) 15:24:05 437.305
ISS 06 May 15:18:32 15:21:47 76° 223° (SW) 15:25:02 145.825
PCSat 06 May 15:20:52 15:26:02 44° 56° (NE) 15:31:13 145.827
CUSAT 1 06 May 15:22:20 15:25:07 16° 81° (E) 15:28:37 437.405
HORYU 2 06 May 15:31:09 15:34:52 27° 69° (ENE) 15:38:41 437.375
ITUPSAT 1 06 May 15:32:10 15:36:52 60° 286° (WNW) 15:41:33 437.325
DANDE 06 May 15:40:08 15:42:43 15° 81° (E) 15:45:59 436.750
RS-15 06 May 15:43:17 15:52:47 31° 325° (NW) 16:02:19 29.354- 29.394
KKS-1 06 May 15:46:21 15:50:27 34° 97° (E) 15:54:34 437.445
Oscar 19 06 May 15:48:19 15:49:13 10° 273° (W) 15:49:43 437.125/150
BEESAT 06 May 15:55:22 15:59:41 34° 290° (WNW) 16:03:55 436.000
SWISSCUBE 06 May 16:00:10 16:04:16 28° 291° (WNW) 16:08:16 437.505
JAS-2 06 May 16:07:55 16:15:27 58° 72° (ENE) 16:22:28 435.910
STARS 06 May 16:11:06 16:15:18 40° 98° (E) 16:19:30 437.465
PHONESAT 2.4 06 May 16:14:04 16:17:36 62° 4° (N) 16:21:09 2401.200-2431.200
AO-7 06 May 16:22:13 16:30:28 76° 70° (ENE) 16:38:46 29.400- 29.500
GONETS M04 06 May 16:23:53 16:32:41 89° 96° (E) 16:41:35
Cosmos 2499 06 May 16:29:13 16:33:44 16° 81° (E) 16:38:43 435.465 / 435.565
VERMONT LUNAR 06 May 16:54:54 16:58:09 51° 203° (SSW) 17:01:25 437.305
CUSAT 1 06 May 17:02:16 17:06:53 55° 285° (WNW) 17:13:04 437.405
PCSat 06 May 17:04:54 17:09:13 24° 252° (WSW) 17:13:23 145.827
HORYU 2 06 May 17:07:38 17:11:28 27° 265° (W) 17:15:14 437.375
DANDE 06 May 17:20:49 17:25:05 48° 286° (WNW) 17:30:50 436.750
KKS-1 06 May 17:23:29 17:26:53 21° 292° (WNW) 17:30:11 437.445
MOZHAYETS 4 06 May 17:41:29 17:45:50 43° 98° (E) 17:50:10
CUTE-I 06 May 17:48:13 17:51:57 20° 66° (ENE) 17:55:51 437.470
STARS 06 May 17:48:24 17:51:29 18° 293° (WNW) 17:54:25 437.465
PHONESAT 2.4 06 May 17:52:20 17:55:51 59° 201° (SSW) 17:59:22 2401.200-2431.200
JAS-2 06 May 17:54:19 18:00:46 27° 267° (W) 18:06:41 435.910
Cubesat XI-IV 06 May 18:00:57 18:05:18 27° 68° (ENE) 18:09:44 437.490
RS-15 06 May 18:03:48 18:10:21 17° 359° (N) 18:17:01 29.354- 29.394
SO-50 06 May 18:08:31 18:13:24 55° 55° (NE) 18:18:13 436.795
Cosmos 2499 06 May 18:17:12 18:26:02 88° 100° (E) 18:34:25 435.465 / 435.565
AO-7 06 May 18:18:02 18:24:09 21° 269° (W) 18:29:53 29.400- 29.500
GONETS M04 06 May 18:25:07 18:30:59 18° 298° (WNW) 18:36:24
VERMONT LUNAR 06 May 18:34:10 18:35:07 11° 215° (SW) 18:35:57 437.305
MOZHAYETS 4 06 May 19:19:41 19:22:45 17° 293° (WNW) 19:25:39
CUTE-I 06 May 19:26:34 19:31:43 49° 261° (W) 19:36:51 437.470
PHONESAT 2.4 06 May 19:31:43 19:33:38 14° 215° (SW) 19:35:28 2401.200-2431.200
Cubesat XI-IV 06 May 19:40:23 19:45:16 36° 263° (W) 19:50:08 437.490
